Wind_Speed
18 17 16 15 13 11 10 7 5 5 7 9 12 15 18 21 24 27 28 29 31 33 33 33 32 31 31 31 31 31 32 33 33 34 34 34 33 32 32 31 31 31 30
19 18 17 16 15 13 11 9 7 6 6 7 8 11 14 17 20 23 25 27 28 29 30 30 30 29 29 30 30 30 30 31 32 32 33 33 33 33 32 31 31 31 31
20 20 19 17 16 15 13 11 9 7 6 5 5 6 9 12 15 18 20 23 24 25 26 27 28 28 28 28 29 29 29 30 31 31 30 30 30 31 30 30 30 30 29
21 20 20 19 17 16 14 13 12 10 7 5 4 4 5 7 9 13 15 18 21 22 23 24 25 26 27 27 27 27 27 28 28 29 29 28 27 27 28 27 27 27 26
22 21 20 19 18 17 16 15 13 11 9 6 5 3 3 4 6 8 12 14 16 18 19 21 22 23 24 25 25 24 24 25 25 25 26 25 25 25 25 26 25 24 25
23 22 21 20 19 18 17 16 14 13 10 8 6 4 2 3 4 6 9 11 14 15 16 18 19 20 21 21 20 20 20 21 21 22 23 23 23 22 23 23 23 22 23
23 23 22 21 21 19 18 17 16 14 12 10 8 6 4 3 2 3 7 9 11 12 14 16 17 17 17 17 18 18 18 19 19 19 19 20 20 20 20 20 20 19 19
24 24 24 23 22 20 19 18 17 16 14 12 10 8 6 4 2 0 3 5 8 9 11 13 14 15 15 15 16 15 16 17 18 18 18 18 19 19 18 17 17 17 17
24 24 24 24 23 22 21 20 19 18 16 14 12 11 9 7 5 3 2 2 5 7 8 10 11 12 12 13 14 14 14 15 16 16 15 15 15 15 15 15 15 15 15
23 23 24 24 24 23 22 21 21 20 19 17 15 14 12 10 8 5 3 3 4 5 7 8 10 10 10 11 12 12 12 13 13 13 13 13 13 13 14 14 14 14 14
22 22 23 23 23 23 22 21 21 20 19 19 18 16 15 13 11 9 7 6 5 5 6 7 9 9 9 9 10 10 10 11 11 11 11 11 11 11 12 13 13 13 13
21 21 22 22 22 22 22 21 21 21 20 19 18 17 16 15 13 11 10 8 8 7 8 8 9 8 8 8 9 9 9 9 10 10 10 10 10 9 9 10 11 11 11
19 20 20 21 21 21 21 21 21 20 20 20 19 18 16 15 14 13 11 10 9 9 9 10 10 10 9 9 9 9 9 9 10 9 9 9 9 9 9 9 9 9 10
18 18 19 19 20 20 20 21 20 20 20 20 19 18 17 16 15 15 13 12 11 10 10 10 10 10 9 8 8 8 9 9 9 9 9 9 8 8 8 8 8 8 7
16 16 17 17 17 18 18 19 19 19 18 18 19 18 18 16 15 15 14 13 12 12 11 11 11 10 10 10 9 8 8 8 8 9 8 8 7 7 7 7 7 7 7
14 14 14 15 15 15 15 16 16 17 17 17 17 17 17 16 15 14 14 13 13 12 12 11 10 10 9 9 8 8 8 8 8 7 7 7 7 6 6 7 7 6 6
12 12 12 13 13 13 13 13 13 14 14 15 15 15 15 15 15 14 13 12 12 11 11 10 9 9 8 8 7 7 7 7 7 6 6 6 6 6 6 6 6 6 6
12 11 11 11 11 11 11 11 11 11 11 12 12 13 13 12 12 12 11 11 10 10 9 9 9 8 8 7 7 7 6 6 5 5 5 5 5 5 6 6 5 5 5
13 12 11 11 10 10 10 9 9 9 9 9 9 10 10 10 9 9 9 9 8 8 8 7 7 7 7 6 6 6 5 5 4 4 4 4 5 5 5 5 4 4 4
15 14 13 12 11 11 10 9 8 8 7 7 7 7 7 7 7 6 7 7 6 6 6 5 5 5 4 4 4 4 4 4 3 3 3 3 4 4 5 5 4 4 4
18 17 16 15 13 13 12 11 10 9 8 7 6 6 5 5 5 4 4 4 4 4 3 3 3 3 2 2 2 2 2 2 2 2 3 3 4 4 4 4 4 4 5
22 21 20 18 17 16 15 14 13 12 10 9 8 7 6 6 5 5 4 4 3 2 2 1 1 1 0 0 1 1 2 2 2 2 3 3 4 4 5 5 5 6 6
26 24 23 22 21 19 18 17 16 15 14 13 12 11 10 9 8 7 6 6 5 5 4 4 3 3 3 3 3 3 3 4 4 4 5 5 6 6 7 7 7 8 8
30 28 27 26 25 23 22 21 19 18 17 16 15 14 13 12 11 10 10 9 8 8 7 7 6 6 6 6 6 6 6 6 7 7 7 7 7 8 8 9 9 10 10
34 32 31 30 28 27 26 25 23 22 21 20 19 18 17 16 15 15 14 13 12 12 11 11 10 10 10 9 9 9 9 9 10 10 10 10 10 10 11 11 11 12 12
38 36 35 33 32 31 30 29 27 26 25 24 23 22 22 21 20 19 18 17 16 16 15 14 14 14 13 13 13 13 13 12 12 13 13 13 13 13 13 14 14 15 15
Wind_Direction
15 14 14 12 7 2 356 343 319 294 273 263 251 240 235 234 233 232 231 230 229 229 229 231 233 232 232 232 232 233 233 233 234 236 239 240 241 244 245 248 251 255 255
18 18 17 16 14 9 6 1 348 327 302 277 263 248 239 236 234 233 231 230 228 228 229 231 234 233 233 232 232 234 234 234 235 238 240 243 244 245 247 251 253 255 258
21 21 20 19 17 16 14 13 8 355 337 312 281 262 248 237 235 231 232 231 228 228 230 230 231 233 232 233 233 233 234 234 235 238 239 241 244 245 248 251 253 256 259
21 21 21 20 19 19 17 16 16 12 5 352 327 289 267 254 244 236 234 233 230 229 227 227 229 229 229 231 233 234 233 234 234 236 237 240 244 246 248 251 254 257 258
22 21 20 20 20 20 18 15 15 13 12 9 1 338 288 259 244 236 229 229 228 228 227 225 229 230 228 229 231 231 231 232 235 237 237 239 242 245 247 251 255 257 256
25 24 24 23 22 21 19 17 16 15 15 15 13 2 330 278 261 238 228 228 226 227 226 225 228 230 230 230 230 230 231 233 235 237 239 241 242 245 248 250 252 254 255
26 26 26 25 24 23 22 21 22 22 23 24 23 22 16 354 307 237 222 223 224 224 223 223 224 226 227 230 232 233 233 231 231 234 236 239 241 244 247 249 249 250 251
28 28 28 29 28 28 28 28 28 29 30 30 27 27 25 23 16 223 201 211 211 208 211 214 214 216 221 224 224 228 230 228 230 232 235 237 238 239 240 241 239 239 242
28 29 30 30 30 31 32 33 33 34 35 35 36 36 37 38 42 61 131 166 189 195 201 201 205 212 214 213 215 220 224 226 228 228 230 230 230 229 228 230 230 233 237
27 29 30 31 32 33 34 35 36 38 39 39 39 40 41 44 48 57 93 119 151 173 182 190 195 199 201 206 205 210 215 218 219 219 219 219 220 220 218 221 225 229 234
25 27 28 30 31 33 34 36 37 39 40 41 42 44 45 49 55 65 79 93 115 137 155 163 171 179 185 189 192 197 200 203 204 205 206 208 209 212 218 220 221 224 225
23 25 27 28 30 32 33 35 37 38 40 40 43 44 47 50 57 66 78 86 99 114 127 138 146 153 158 166 171 175 176 178 182 188 193 198 201 206 211 212 212 217 221
20 23 25 27 30 32 33 35 38 39 41 42 43 45 47 50 54 63 74 82 88 96 106 118 129 135 137 144 150 158 165 168 173 181 186 189 190 193 198 199 201 209 214
15 19 21 24 28 32 33 35 37 40 42 43 44 46 48 52 57 63 71 77 83 88 97 109 118 127 129 131 138 146 150 156 163 167 172 176 178 182 187 192 195 197 200
7 12 16 19 23 27 31 33 36 38 41 42 44 46 49 54 59 65 68 73 79 84 92 103 109 114 121 123 128 136 143 148 156 160 162 166 172 176 184 190 191 191 194
358 2 6 11 15 20 24 28 33 36 39 41 44 46 50 54 60 65 68 72 77 84 91 98 103 108 116 122 126 131 136 142 150 155 158 162 169 175 177 179 181 186 194
347 350 354 360 5 10 16 21 26 31 35 39 42 45 48 53 59 63 67 71 77 82 86 90 95 103 111 118 125 132 137 142 148 153 157 161 165 167 168 173 180 187 194
329 335 340 345 351 357 3 9 16 21 26 31 37 42 46 50 54 58 63 67 71 75 80 85 88 92 100 108 115 122 128 132 139 147 153 162 167 170 172 175 181 187 194
311 315 319 324 330 336 343 351 359 7 13 20 26 33 39 45 50 53 57 62 67 71 75 81 87 90 96 104 111 116 123 130 137 145 154 164 173 178 182 186 189 193 199
297 300 303 305 308 312 317 322 330 338 347 355 4 12 20 27 34 41 46 51 56 63 71 80 87 91 98 106 116 124 129 135 145 156 164 171 177 184 192 199 204 210 219
285 287 290 292 294 295 297 300 303 308 315 322 328 336 344 352 1 8 14 22 30 40 51 63 74 85 99 120 135 150 158 163 170 177 184 188 192 198 205 214 223 231 238
277 278 279 281 283 285 285 285 286 288 290 294 299 302 306 310 314 318 320 321 322 324 332 337 336 338 327 271 219 210 213 214 212 209 208 214 222 229 234 238 243 248 252
273 273 273 274 275 276 277 277 277 277 278 278 280 283 286 287 290 292 294 294 294 291 286 281 277 274 272 272 270 263 256 251 248 249 250 250 251 251 252 254 258 260 262
269 269 269 270 270 270 271 271 271 271 271 271 272 273 274 275 276 277 278 278 277 276 276 273 271 270 269 269 269 267 266 265 264 263 262 261 260 260 262 264 265 267 269
265 266 266 266 266 266 267 267 267 266 266 267 267 268 268 268 269 270 270 270 270 271 271 270 269 268 267 266 266 267 267 267 268 268 268 267 267 268 268 268 269 270 272
262 263 263 263 263 263 263 264 264 264 264 264 264 264 265 265 266 266 267 267 267 267 268 268 268 267 266 266 267 267 268 269 269 270 270 270 270 271 271 271 272 273 275
Height
5779 5775 5770 5767 5763 5760 5758 5756 5754 5753 5752 5752 5752 5753 5754 5757 5759 5762 5766 5770 5774 5778 5781 5785 5789 5793 5796 5799 5803 5806 5809 5813 5816 5819 5823 5825 5828 5831 5833 5834 5836 5837 5838
5780 5776 5772 5768 5764 5761 5758 5755 5753 5751 5750 5750 5750 5750 5751 5752 5755 5757 5760 5764 5767 5770 5774 5778 5781 5785 5789 5792 5795 5798 5801 5805 5808 5812 5815 5818 5820 5823 5825 5827 5828 5830 5831
5782 5778 5774 5769 5765 5762 5758 5755 5753 5751 5749 5748 5747 5747 5748 5749 5750 5752 5755 5757 5760 5764 5768 5772 5775 5779 5782 5786 5789 5792 5795 5798 5801 5804 5807 5810 5813 5815 5818 5820 5821 5822 5823
5785 5780 5776 5771 5767 5763 5759 5756 5753 5751 5749 5747 5746 5746 5746 5746 5747 5748 5750 5752 5755 5758 5762 5766 5769 5772 5776 5779 5782 5785 5788 5791 5794 5798 5801 5803 5806 5808 5810 5812 5814 5815 5816
5787 5782 5778 5773 5769 5765 5761 5757 5754 5751 5749 5747 5746 5745 5745 5745 5745 5745 5747 5749 5751 5754 5757 5760 5763 5766 5770 5773 5776 5779 5782 5785 5788 5791 5794 5797 5800 5802 5804 5806 5807 5808 5809
5790 5785 5780 5776 5771 5767 5763 5759 5755 5752 5749 5747 5745 5744 5744 5743 5743 5743 5744 5746 5748 5750 5753 5756 5759 5762 5765 5768 5771 5774 5777 5780 5783 5786 5789 5791 5794 5796 5798 5800 5801 5802 5803
5793 5788 5783 5778 5773 5769 5765 5761 5757 5753 5750 5747 5746 5744 5743 5743 5742 5741 5742 5744 5745 5747 5749 5752 5755 5758 5760 5763 5766 5769 5772 5775 5778 5781 5783 5786 5788 5790 5792 5794 5795 5797 5798
5796 5791 5786 5781 5776 5772 5767 5763 5759 5755 5752 5749 5747 5745 5744 5742 5741 5741 5741 5742 5743 5745 5746 5749 5752 5755 5757 5760 5763 5766 5768 5771 5774 5776 5779 5781 5783 5785 5787 5789 5790 5792 5793
5799 5795 5790 5785 5780 5775 5770 5766 5762 5758 5755 5751 5748 5746 5744 5743 5741 5741 5741 5741 5742 5743 5745 5748 5750 5753 5755 5758 5760 5763 5765 5767 5770 5772 5775 5777 5778 5780 5782 5785 5786 5788 5789
5803 5798 5793 5788 5783 5779 5774 5770 5766 5762 5758 5754 5751 5748 5746 5744 5742 5741 5741 5741 5742 5743 5744 5746 5749 5751 5753 5756 5758 5760 5762 5764 5767 5769 5771 5773 5775 5777 5779 5782 5783 5785 5786
5806 5801 5797 5792 5787 5783 5778 5774 5770 5766 5762 5758 5755 5751 5749 5746 5744 5743 5742 5742 5743 5743 5744 5746 5748 5750 5752 5754 5756 5758 5760 5762 5764 5767 5769 5771 5773 5775 5777 5779 5781 5782 5783
5809 5805 5800 5795 5791 5787 5782 5778 5774 5770 5766 5762 5759 5755 5752 5750 5747 5746 5745 5744 5744 5745 5746 5747 5748 5750 5752 5754 5756 5757 5759 5761 5763 5766 5768 5769 5771 5773 5775 5776 5778 5779 5781
5812 5807 5803 5799 5795 5790 5786 5782 5778 5774 5770 5766 5763 5759 5756 5754 5751 5750 5748 5748 5747 5747 5748 5749 5750 5752 5754 5755 5756 5758 5759 5761 5763 5765 5767 5769 5770 5772 5774 5775 5776 5778 5779
5814 5810 5806 5802 5798 5794 5790 5786 5782 5778 5775 5771 5768 5764 5761 5758 5756 5754 5753 5752 5751 5751 5751 5752 5753 5754 5755 5756 5758 5759 5761 5762 5764 5766 5767 5769 5770 5771 5773 5774 5776 5777 5778
5815 5812 5808 5805 5801 5797 5794 5790 5787 5783 5779 5776 5773 5769 5766 5763 5761 5759 5757 5756 5755 5755 5755 5755 5756 5757 5758 5759 5760 5761 5762 5764 5765 5766 5768 5769 5770 5771 5773 5774 5775 5776 5778
5816 5813 5810 5807 5804 5800 5797 5794 5790 5787 5784 5780 5777 5774 5771 5768 5766 5764 5763 5761 5760 5760 5760 5760 5760 5760 5761 5762 5762 5763 5764 5765 5766 5767 5768 5769 5770 5772 5773 5774 5775 5776 5777
5817 5814 5811 5808 5805 5802 5799 5796 5793 5790 5787 5784 5781 5778 5776 5773 5771 5769 5768 5766 5765 5764 5764 5763 5763 5763 5764 5764 5765 5765 5766 5767 5768 5768 5769 5770 5771 5772 5773 5774 5775 5776 5776
5816 5813 5811 5808 5806 5803 5800 5798 5795 5793 5790 5787 5785 5782 5780 5777 5775 5773 5772 5771 5770 5768 5768 5767 5767 5766 5766 5767 5767 5767 5768 5768 5769 5769 5770 5770 5771 5772 5773 5774 5774 5775 5776
5814 5812 5810 5807 5805 5803 5801 5798 5796 5794 5792 5789 5787 5785 5783 5781 5779 5777 5775 5774 5773 5772 5771 5770 5770 5769 5769 5769 5769 5769 5769 5770 5770 5770 5770 5771 5771 5772 5773 5773 5774 5774 5775
5811 5809 5807 5805 5803 5801 5800 5798 5796 5794 5792 5790 5788 5786 5784 5783 5781 5779 5778 5776 5775 5774 5773 5773 5772 5771 5771 5771 5771 5771 5771 5771 5771 5771 5771 5771 5771 5772 5772 5773 5773 5774 5774
5806 5805 5803 5802 5800 5799 5797 5796 5794 5793 5791 5789 5788 5786 5785 5783 5782 5780 5779 5778 5777 5776 5775 5774 5773 5773 5772 5772 5772 5772 5771 5771 5771 5771 5771 5771 5771 5771 5772 5772 5772 5772 5772
5800 5799 5798 5797 5796 5795 5793 5792 5791 5790 5789 5788 5786 5785 5784 5783 5781 5780 5779 5778 5777 5776 5775 5774 5774 5773 5773 5772 5772 5772 5771 5771 5771 5771 5771 5771 5771 5771 5771 5771 5771 5771 5771
5793 5792 5792 5791 5790 5789 5788 5787 5786 5786 5785 5784 5783 5782 5781 5780 5779 5778 5778 5777 5776 5775 5774 5774 5773 5773 5772 5772 5771 5771 5771 5770 5770 5770 5770 5769 5769 5769 5769 5769 5769 5769 5768
5784 5784 5784 5783 5783 5782 5782 5781 5781 5780 5780 5779 5779 5778 5777 5777 5776 5776 5775 5774 5774 5773 5772 5772 5771 5771 5770 5770 5769 5769 5769 5768 5768 5768 5768 5767 5767 5767 5767 5766 5766 5766 5765
5775 5775 5775 5774 5774 5774 5774 5774 5774 5773 5773 5773 5773 5772 5772 5772 5771 5771 5771 5770 5770 5769 5769 5769 5768 5768 5767 5767 5767 5766 5766 5766 5765 5765 5765 5764 5764 5764 5763 5763 5763 5762 5762
5763 5764 5764 5764 5764 5765 5765 5765 5765 5765 5765 5765 5765 5765 5765 5765 5765 5765 5765 5765 5765 5764 5764 5764 5764 5763 5763 5763 5763 5762 5762 5762 5761 5761 5761 5760 5760 5760 5759 5759 5758 5758 5757